• In Moldova, Republic
  • List of Countries
  • For 7 days
  • Water Temperature
  • Satellite Maps
  • Weather Map
  • Weather Widgets
  • user-avatar
    Login

    Hourly Weather Albany

    Today, 22 August, Tuesday

    Time Temperature Precipitation Wind Pressure Humidity
    00:00 +9°C° 0.1 mm 5 mps 760 mmHg 86%
    01:00 +9°C° 0.1 mm 5 mps 759 mmHg 87%
    02:00 +9°C° 0 mm 5 mps 759 mmHg 87%
    03:00 +9°C° 0.2 mm 5 mps 759 mmHg 87%
    04:00 +9°C° 0.2 mm 5 mps 759 mmHg 87%
    05:00 +8°C° 0.2 mm 5 mps 760 mmHg 87%
    06:00 +9°C° 0.3 mm 5 mps 760 mmHg 87%
    07:00 +9°C° 0.3 mm 5 mps 760 mmHg 88%
    08:00 +10°C° 0 mm 5 mps 761 mmHg 88%
    09:00 +11°C° 0.2 mm 4 mps 761 mmHg 87%
    10:00 +12°C° 0.2 mm 4 mps 761 mmHg 85%
    11:00 +12°C° 0.2 mm 3 mps 761 mmHg 84%
    12:00 +13°C° 0 mm 3 mps 762 mmHg 78%
    13:00 +14°C° 0 mm 4 mps 762 mmHg 73%
    14:00 +14°C° 0 mm 4 mps 761 mmHg 68%
    15:00 +14°C° 0 mm 4 mps 762 mmHg 68%
    16:00 +13°C° 0 mm 4 mps 762 mmHg 69%
    17:00 +13°C° 0 mm 4 mps 762 mmHg 70%
    18:00 +12°C° 0 mm 4 mps 763 mmHg 71%
    19:00 +11°C° 0 mm 3 mps 764 mmHg 73%
    20:00 +10°C° 0 mm 3 mps 764 mmHg 75%
    21:00 +10°C° 0 mm 3 mps 764 mmHg 74%
    22:00 +10°C° 0 mm 3 mps 765 mmHg 74%
    23:00 +10°C° 0 mm 3 mps 765 mmHg 73%

    Tomorrow, 23 August, Wednesday

    Time Temperature Precipitation Wind Pressure Humidity
    00:00 +9°C° 0 mm 2 mps 765 mmHg 74%
    01:00 +9°C° 0 mm 2 mps 765 mmHg 75%
    02:00 +9°C° 0 mm 2 mps 766 mmHg 76%
    03:00 +9°C° 0 mm 2 mps 766 mmHg 76%
    04:00 +8°C° 0 mm 2 mps 766 mmHg 77%
    05:00 +8°C° 0 mm 2 mps 766 mmHg 77%
    06:00 +9°C° 0 mm 2 mps 766 mmHg 76%
    07:00 +9°C° 0 mm 2 mps 767 mmHg 76%
    08:00 +10°C° 0 mm 2 mps 767 mmHg 75%
    09:00 +12°C° 0 mm 2 mps 767 mmHg 69%
    10:00 +14°C° 0 mm 1 mps 767 mmHg 62%
    11:00 +16°C° 0 mm 1 mps 768 mmHg 56%
    12:00 +16°C° 0 mm 1 mps 767 mmHg 55%
    13:00 +16°C° 0 mm 1 mps 767 mmHg 55%
    14:00 +16°C° 0 mm 2 mps 767 mmHg 55%
    15:00 +16°C° 0 mm 2 mps 767 mmHg 58%
    16:00 +15°C° 0 mm 1 mps 767 mmHg 62%
    17:00 +14°C° 0 mm 1 mps 767 mmHg 66%
    18:00 +13°C° 0 mm 1 mps 768 mmHg 70%
    19:00 +12°C° 0 mm 1 mps 768 mmHg 74%
    20:00 +10°C° 0 mm 1 mps 768 mmHg 78%
    21:00 +10°C° 0 mm 1 mps 769 mmHg 79%
    22:00 +10°C° 0 mm 1 mps 769 mmHg 81%
    23:00 +9°C° 0 mm 1 mps 769 mmHg 82%

    Day after tomorrow, 24 August, Thursday

    Time Temperature Precipitation Wind Pressure Humidity
    00:00 +9°C° 0 mm 1 mps 769 mmHg 83%
    01:00 +9°C° 0 mm 1 mps 769 mmHg 84%
    02:00 +9°C° 0 mm 1 mps 769 mmHg 85%
    03:00 +8°C° 0 mm 1 mps 768 mmHg 86%
    04:00 +8°C° 0 mm 1 mps 768 mmHg 87%
    05:00 +8°C° 0 mm 1 mps 768 mmHg 88%
    06:00 +9°C° 0 mm 1 mps 768 mmHg 85%
    07:00 +9°C° 0 mm 1 mps 768 mmHg 83%
    08:00 +9°C° 0 mm 2 mps 769 mmHg 81%
    09:00 +12°C° 0 mm 1 mps 769 mmHg 74%
    10:00 +14°C° 0 mm 1 mps 768 mmHg 66%
    11:00 +16°C° 0 mm 1 mps 768 mmHg 59%
    12:00 +18°C° 0 mm 1 mps 768 mmHg 58%
    13:00 +17°C° 0 mm 2 mps 767 mmHg 58%
    14:00 +17°C° 0 mm 2 mps 766 mmHg 58%
    15:00 +16°C° 0 mm 2 mps 766 mmHg 62%
    16:00 +15°C° 0 mm 2 mps 766 mmHg 67%
    17:00 +13°C° 0 mm 3 mps 766 mmHg 72%
    18:00 +13°C° 0 mm 2 mps 767 mmHg 76%
    19:00 +12°C° 0 mm 2 mps 767 mmHg 80%
    20:00 +10°C° 0 mm 2 mps 767 mmHg 85%
    21:00 +10°C° 0 mm 2 mps 767 mmHg 85%
    22:00 +10°C° 0 mm 2 mps 767 mmHg 85%
    23:00 +11°C° 0 mm 1 mps 767 mmHg 85%

    25 August, Friday

    Time Temperature Precipitation Wind Pressure Humidity
    00:00 +10°C° 0 mm 1 mps 767 mmHg 86%
    01:00 +10°C° 0 mm 1 mps 767 mmHg 86%
    02:00 +10°C° 0 mm 1 mps 767 mmHg 86%
    03:00 +9°C° 0 mm 1 mps 766 mmHg 87%
    04:00 +9°C° 0 mm 1 mps 766 mmHg 89%
    05:00 +9°C° 0 mm 1 mps 766 mmHg 90%
    06:00 +10°C° 0 mm 1 mps 766 mmHg 88%
    07:00 +10°C° 0 mm 1 mps 767 mmHg 86%
    08:00 +11°C° 0 mm 1 mps 767 mmHg 83%
    09:00 +13°C° 0 mm 1 mps 767 mmHg 76%
    10:00 +15°C° 0 mm 2 mps 766 mmHg 69%
    11:00 +16°C° 0 mm 2 mps 766 mmHg 62%
    12:00 +16°C° 0 mm 2 mps 766 mmHg 63%
    13:00 +16°C° 0 mm 2 mps 765 mmHg 64%
    14:00 +16°C° 0 mm 2 mps 765 mmHg 66%
    15:00 +15°C° 0 mm 2 mps 765 mmHg 69%
    16:00 +15°C° 0 mm 2 mps 765 mmHg 72%
    17:00 +13°C° 0 mm 3 mps 765 mmHg 75%
    18:00 +13°C° 0 mm 2 mps 766 mmHg 78%
    19:00 +12°C° 0 mm 2 mps 766 mmHg 81%
    20:00 +10°C° 0 mm 2 mps 767 mmHg 84%
    21:00 +10°C° 0 mm 2 mps 767 mmHg 86%
    22:00 +9°C° 0 mm 2 mps 767 mmHg 87%
    23:00 +9°C° 0 mm 2 mps 767 mmHg 89%

    26 August, Saturday

    Time Temperature Precipitation Wind Pressure Humidity
    00:00 +9°C° 0 mm 2 mps 766 mmHg 90%
    01:00 +10°C° 0 mm 1 mps 766 mmHg 91%
    02:00 +9°C° 0 mm 1 mps 766 mmHg 93%
    03:00 +9°C° 0.1 mm 1 mps 766 mmHg 93%
    04:00 +9°C° 0.1 mm 1 mps 766 mmHg 94%
    05:00 +9°C° 0.1 mm 1 mps 766 mmHg 94%
    06:00 +10°C° 0.1 mm 1 mps 767 mmHg 92%
    07:00 +11°C° 0.1 mm 1 mps 767 mmHg 90%
    08:00 +12°C° 0.1 mm 1 mps 767 mmHg 88%
    09:00 +13°C° 0.1 mm 2 mps 767 mmHg 83%
    10:00 +13°C° 0.1 mm 3 mps 767 mmHg 78%
    11:00 +16°C° 0.1 mm 3 mps 767 mmHg 73%
    12:00 +15°C° 0.1 mm 4 mps 767 mmHg 73%
    13:00 +15°C° 0.1 mm 4 mps 767 mmHg 73%
    14:00 +14°C° 0.1 mm 5 mps 766 mmHg 73%
    15:00 +14°C° 0 mm 5 mps 767 mmHg 73%
    16:00 +14°C° 0 mm 4 mps 767 mmHg 73%
    17:00 +14°C° 0 mm 4 mps 767 mmHg 73%
    18:00 +13°C° 0 mm 4 mps 768 mmHg 76%
    19:00 +12°C° 0 mm 4 mps 768 mmHg 78%
    20:00 +11°C° 0 mm 4 mps 768 mmHg 81%
    21:00 +11°C° 0 mm 4 mps 768 mmHg 82%
    22:00 +11°C° 0 mm 4 mps 768 mmHg 83%
    23:00 +10°C° 0 mm 4 mps 768 mmHg 84%

    27 August, Sunday

    Time Temperature Precipitation Wind Pressure Humidity
    00:00 +10°C° 0 mm 4 mps 768 mmHg 85%
    01:00 +10°C° 0 mm 3 mps 768 mmHg 86%
    02:00 +10°C° 0 mm 3 mps 768 mmHg 87%
    03:00 +10°C° 0 mm 3 mps 768 mmHg 87%
    04:00 +10°C° 0 mm 3 mps 768 mmHg 87%
    05:00 +10°C° 0 mm 3 mps 768 mmHg 87%
    06:00 +10°C° 0 mm 3 mps 768 mmHg 86%
    07:00 +11°C° 0 mm 3 mps 769 mmHg 84%
    08:00 +12°C° 0 mm 3 mps 769 mmHg 82%
    09:00 +13°C° 0 mm 3 mps 769 mmHg 77%
    10:00 +14°C° 0 mm 3 mps 768 mmHg 71%
    11:00 +17°C° 0 mm 4 mps 768 mmHg 66%
    12:00 +17°C° 0.1 mm 4 mps 768 mmHg 67%
    13:00 +17°C° 0.1 mm 4 mps 767 mmHg 68%
    14:00 +16°C° 0.1 mm 5 mps 766 mmHg 69%
    15:00 +15°C° 0 mm 5 mps 766 mmHg 71%
    16:00 +15°C° 0 mm 5 mps 766 mmHg 74%
    17:00 +14°C° 0 mm 5 mps 766 mmHg 77%
    18:00 +13°C° 0 mm 4 mps 767 mmHg 80%
    19:00 +12°C° 0 mm 4 mps 767 mmHg 83%
    20:00 +11°C° 0 mm 4 mps 767 mmHg 86%
    21:00 +11°C° 0 mm 4 mps 767 mmHg 87%
    22:00 +11°C° 0 mm 3 mps 767 mmHg 89%
    23:00 +11°C° 0 mm 3 mps 766 mmHg 90%
    Show more